CMS-03 (GSAT-7R)

Last updated on Mon Sep 07 2026 00:03:03 GMT+0000 (Coordinated Universal Time)

1 66311U 25249B 26249.60646839 -.00000093 00000+0 00000+0 0 9995 2 66311 0.0727 269.9121 0000671 225.6382 142.4404 1.00271389 3167
UTC large
Height (km)
Speed (km/s)
/
Latitude / Longitude
Inclination (degrees)
Orbital Period (minutes)
Azimuth
Elevation
Range (km)
Doppler Factor

Next 0 passes for location: London (51.5072 / 0.1276)

No passes found over London.
CMS-03 (GSAT-7R)